Location: Newton_Old_St_Pauls
(35.6750°N, 81.2580°W)
Time: 22:53:46
(UTC-04:00)

Daily predictions for brighter satellites

Satellite Brightness Start Highest point End
(mag) Time Altitude Azimuth Time Altitude Azimuth Time Altitude Azimuth
Hubble Space Telescope 3.1 21:01:02 10° SW 21:02:34 12° SSW 21:04:06 10° S
Resurs 01 Rocket 1.7 20:58:30 10° SSE 21:02:55 88° E 21:07:23 10° NNW
NOSS 3-2 (C) 3.9 20:58:34 10° SW 21:04:28 70° WNW 21:10:56 10° NNE
Tiangong 2 1.6 21:02:27 10° WNW 21:05:37 54° NNE 21:08:46 10° E
In-Cosmos 22 Rocket 4.5 21:00:13 10° S 21:06:00 82° W 21:11:52 10° N
Cosmos 2082 Rocket 3.5 21:02:14 10° NW 21:07:31 42° WSW 21:12:49 10° S
Meteor 2-3 Rocket 3.8 21:03:57 10° S 21:09:34 62° E 21:15:10 10° NNE
Cosmos 2346 Rocket 4.5 21:06:56 10° S 21:12:50 61° E 21:18:48 10° NNE
Cosmos 1825 3.9 21:11:00 10° SE 21:13:17 15° E 21:15:34 10° NE
Cosmos 1833 Rocket 4.1 21:09:09 10° NW 21:14:18 38° WSW 21:19:26 10° S
Cosmos 1816 Rocket 4.5 21:08:29 10° S 21:14:40 84° E 21:20:49 10° N
CENTAUR R/B 2.7 21:09:53 10° S 21:15:25 46° ESE 21:21:36 10° NE
Meteor 1-26 Rocket 4.3 21:10:20 10° N 21:16:00 70° E 21:21:45 10° SSE
Okean 1-7 4.4 21:12:45 10° NNE 21:16:15 23° ENE 21:19:23 12° SE
Timation 2 Rocket 4.4 21:10:26 10° NNW 21:16:47 71° WSW 21:23:24 10° SSE
Cosmos 2344 4.2 21:12:26 10° S 21:19:08 33° ESE 21:25:59 10° NE
OAO 2 Rocket 4.3 21:14:50 10° W 21:19:29 36° SSW 21:23:46 11° SE
Shenzhou-11 Module 1.9 21:18:45 10° WNW 21:21:50 86° SSW 21:24:15 15° ESE
Cosmos 1782 4.3 21:19:02 10° NNE 21:21:59 20° ENE 21:24:10 13° ESE
Aureole 1 4.1 21:19:26 10° S 21:22:24 71° ESE 21:25:42 10° NNE
Envisat 3.0 21:17:45 10° SSE 21:22:49 80° ENE 21:27:55 10° N
H-2A ROCKET BODY 2.4 21:26:17 10° SW 21:28:33 27° S 21:32:06 14° ESE
DNEPR-1 R/B 3.9 21:26:20 10° SSW 21:31:47 59° ESE 21:36:23 10° NE
Cosmos 1943 Rocket 2.4 21:26:41 10° S 21:31:59 45° ESE 21:37:15 10° NE
Cosmos 1892 3.3 21:28:57 10° SSW 21:32:45 59° W 21:36:33 10° N
Cosmos 1703 Rocket 3.7 21:29:02 10° N 21:33:21 54° E 21:37:12 12° SSE
Cosmos 1125 Rocket 3.6 21:32:54 10° S 21:38:01 54° ESE 21:43:06 10° NNE
Helios 1B rocket 2.3 21:40:11 10° NNE 21:44:18 82° ESE 21:48:23 10° S
Cosmos 2263 4.2 21:41:47 10° SSW 21:47:34 82° ESE 21:53:19 10° NNE
Cosmos 2084 3.2 21:44:00 10° NNW 21:47:51 67° ENE 21:50:04 24° SE
Cosmos 1869 Rocket 3.4 21:44:37 10° S 21:48:56 84° E 21:53:19 10° N
Cosmos 1340 3.9 21:47:29 10° NNE 21:50:39 25° ENE 21:51:34 23° E
Lacrosse 4 Rocket 3.0 21:49:05 10° N 21:52:46 24° NE 21:54:34 19° E
SAR-Lupe-4 3.7 21:52:14 26° SE 21:53:59 56° ENE 21:57:30 10° N
Cosmos 2369 Rocket 2.9 21:51:51 10° SW 21:57:23 57° WNW 22:03:00 10° NNE
YAOGAN 6 3.0 22:00:37 17° S 22:03:19 62° W 22:06:59 10° NNW
Cosmos 158 Rocket 4.0 22:03:21 10° N 22:08:10 57° ENE 22:10:14 32° SE
Cosmos 1606 2.6 22:05:09 10° N 22:08:56 69° E 22:10:13 38° SSE
Cosmos 2221 Rocket 3.7 22:08:07 10° N 22:12:33 76° W 22:15:20 23° S
H-2A R/B 3.0 22:11:04 26° ESE 22:12:54 33° ENE 22:17:37 10° N
COSMOS 2455 4.4 22:07:41 10° WSW 22:13:12 37° WNW 22:18:46 10° N
Meteor 1-29 4.2 22:11:57 10° N 22:15:17 43° WNW 22:18:35 10° SSW
SAR-Lupe-1 4.0 22:14:20 41° S 22:15:29 86° WSW 22:19:04 10° NNW
MetOp-B 4.1 22:14:45 30° SSE 22:17:25 68° ENE 22:22:44 10° N
GPS 2-04 Rocket1 2.3 22:14:33 10° W 22:18:15 72° S 22:18:45 60° SE
Lacrosse 5 rocket 4.0 22:16:11 10° W 22:18:45 18° NW 22:21:21 10° N
Helios 1A 4.2 22:15:30 14° SSW 22:18:47 39° W 22:22:44 10° NNW
ATLAS 5 CENTAUR R/B 2.7 22:13:52 10° NNW 22:19:53 58° NE 22:22:52 32° ESE
Aureole 3 4.3 22:17:41 11° SSW 22:20:26 32° W 22:23:09 10° NNW
ERS-1 Rocket 3.0 22:23:37 29° S 22:26:16 78° WSW 22:31:20 10° NNW
OAO 3 Copernicus 4.2 22:23:29 10° WSW 22:28:32 78° S 22:30:29 37° E
Cosmos 1656 Rocket 3.6 22:25:33 26° S 22:28:32 60° ESE 22:33:57 10° NNE
ARGOS 3.1 22:28:52 38° SSE 22:30:59 75° ENE 22:36:21 10° N
Cosmos 1408 3.9 22:28:17 14° SSW 22:31:12 39° W 22:34:43 10° N
Nadezhda 4 Rocket 3.9 22:30:13 31° SSE 22:33:12 65° E 22:39:17 10° NNE
H-2A R/B 4.4 22:33:43 11° ENE 22:33:43 11° ENE 22:34:18 10° NE
Cosmos 1092 Rocket 4.3 22:31:56 37° SE 22:33:25 43° E 22:39:10 10° NNE
Meteor 1-27 Rocket 3.6 22:29:43 10° N 22:35:27 74° E 22:37:23 42° SSE
ISS -0.2 22:35:05 10° NNW 22:35:31 10° NNW 22:35:58 10° NNW
Terra 3.2 22:37:35 24° ENE 22:37:41 24° ENE 22:41:28 10° NNE
USA 215 3.5 22:37:58 33° ESE 22:40:58 62° NE 22:47:26 10° NW
YAOGAN 11 4.1 22:40:30 60° SE 22:41:13 75° ENE 22:45:44 10° N
Cosmos 1048 Rocket 4.2 22:36:39 10° NNW 22:41:55 69° WSW 22:43:45 40° S
Tiangong 2 3.3 22:39:47 10° W 22:41:25 19° WSW 22:41:25 19° WSW
USA 245 4.4 22:41:38 37° S 22:44:19 87° W 22:50:43 10° NNW
Cosmos 1825 4.2 22:45:39 11° SW 22:48:36 25° WNW 22:51:48 10° NNW
Cosmos 1908 Rocket 4.3 22:55:36 41° NE 22:55:36 41° NE 22:58:57 10° NNE
SPOT 5 3.2 22:56:52 48° SSW 22:58:18 70° WSW 23:03:37 10° NNW
Intercosmos 25 Rocket 3.7 22:52:33 10° N 22:59:03 82° E 22:59:26 74° SE
Milstar 3 3.2 22:53:32 10° WSW 23:04:04 52° S 23:05:32 46° SE
CENTAUR R/B 4.4 23:01:00 10° WSW 23:06:15 30° NW 23:12:07 10° NNE
Cosmos 2251 Rocket 3.8 23:02:38 10° N 23:07:41 51° ENE 23:07:41 51° ENE
Cosmos 2227 Rocket 4.1 23:05:54 10° NNE 23:09:12 16° NE 23:10:00 15° ENE
DMSP B5D2-2 3.9 23:05:19 10° NNE 23:10:33 89° WNW 23:11:06 72° SSW
SPOT 1/Viking Rocket 3.6 23:10:32 63° SSW 23:11:11 71° WSW 23:16:24 10° NNW
Cosmos 1943 Rocket 4.5 23:11:36 10° WSW 23:15:54 22° WNW 23:20:12 10° N
Cosmos 2219 3.5 23:11:25 10° N 23:17:01 52° ENE 23:17:12 52° ENE
Meteor 1-14 Rocket 4.2 23:17:48 70° ESE 23:17:56 71° E 23:23:44 10° NNE
Cosmos 2195 Rocket 4.4 23:21:49 70° SE 23:22:27 77° E 23:28:47 10° N
GEOS 3 Rocket 4.0 23:30:20 53° NE 23:30:20 53° NE 23:35:18 10° NNW
Lacrosse 4 Rocket 3.1 23:27:36 10° NW 23:30:55 28° W 23:30:55 28° W
Sich 1 Rocket 4.4 23:34:13 50° NNW 23:34:13 50° NNW 23:37:43 10° N
SL-19 R/B 4.3 23:31:19 10° NNE 23:37:29 85° ESE 23:37:41 82° SSE
ATLAS CENTAUR R/B 3.1 23:39:00 29° N 23:39:00 29° N 23:41:15 10° NNE
Cosmos 1655 Rocket 3.9 23:42:10 71° ENE 23:42:10 71° ENE 23:48:02 10° N
Cosmos 1975 Rocket 4.4 23:42:36 10° N 23:45:23 37° N 23:45:23 37° N
Cosmos 2026 Rocket 4.0 23:51:35 70° WSW 23:51:53 71° W 23:58:07 10° N
H-2A R/B 3.6 23:51:42 27° WSW 23:52:14 28° W 23:56:47 10° NW
Cosmos 1867 4.1 23:47:25 10° NW 23:51:55 54° WNW 23:51:55 54° WNW
